Location: Dattensoll
(49.9928°N, 9.8954°E)
Time: 06:07:36
(UTC+00:00)

Cosmos 1805 - Pass Details

Date: 19 May 2025
Orbit: 448 x 452 km, 82.5° (Epoch: 22 June)

Event Time Altitude Azimuth Distance (km) Brightness Sun altitude
Rises 20:45:37 0° 358° (N) 2,469 7.7 -12.5°
Reaches altitude 10° 20:47:51 10° 9° (N) 1,590 6.4 -12.7°
Maximum altitude 20:50:59 31° 73° (ENE) 816 4.0 -13.0°
Enters shadow 20:52:34 21° 119° (ESE) 1,069 4.3 -13.1°
